This is the latest recevied weather packets stored in our database for station/object IR4UCA. If no packets are shown the sender has not sent any weather packets the latest 10 day(s).
| Time | Temp. | Humidity | Pressure | Rain* | Wind** | Luminosity | Snow |
|---|---|---|---|---|---|---|---|
| 1778147983 | 20.56° C | 52% | 1013.5 hPa | 0 mm | - | - | - |
| 1778147385 | 20.56° C | 52% | 1013.5 hPa | 0 mm | - | - | - |
| 1778146784 | 20° C | 52% | 1013.5 hPa | 0 mm | - | - | - |
| 1778146185 | 20° C | 52% | 1013.5 hPa | 0 mm | - | - | - |
| 1778145583 | 19.44° C | 51% | 1013.6 hPa | 0 mm | - | - | - |
| 1778144983 | 19.44° C | 53% | 1013.6 hPa | 0 mm | - | - | - |
| 1778143783 | 19.44° C | 52% | 1013.4 hPa | 0 mm | - | - | - |
| 1778143185 | 18.89° C | 56% | 1013.4 hPa | 0 mm | - | - | - |
| 1778142585 | 18.33° C | 56% | 1013.4 hPa | 0 mm | - | - | - |
| 1778141983 | 17.78° C | 60% | 1013.3 hPa | 0 mm | - | - | - |
| 1778141383 | 17.78° C | 60% | 1013.4 hPa | 0 mm | - | - | - |
| 1778139583 | 16.67° C | 64% | 1013.1 hPa | 0 mm | - | - | - |
| 1778138983 | 16.67° C | 64% | 1013.1 hPa | 0 mm | - | - | - |
| 1778138383 | 16.67° C | 65% | 1013 hPa | 0 mm | - | - | - |
| 1778137783 | 16.11° C | 65% | 1013 hPa | 0 mm | - | - | - |
| 1778136583 | 15.56° C | 66% | 1012.9 hPa | 0 mm | - | - | - |
| 1778135984 | 15.56° C | 67% | 1012.8 hPa | 0 mm | - | - | - |
| 1778135386 | 15° C | 67% | 1012.8 hPa | 0 mm | - | - | - |
| 1778134184 | 15° C | 69% | 1012.6 hPa | 0 mm | - | - | - |
| 1778132983 | 14.44° C | 71% | 1012.4 hPa | 0 mm | - | - | - |
| 1778132383 | 13.89° C | 74% | 1012.3 hPa | 0 mm | - | - | - |
| 1778131788 | 13.33° C | 76% | 1012.1 hPa | 0 mm | - | - | - |
| 1778131185 | 12.78° C | 78% | 1012.1 hPa | 0 mm | - | - | - |
| 1778129384 | 11.67° C | 86% | 1011.9 hPa | 0 mm | - | - | - |
| 1778128784 | 11.67° C | 85% | 1011.7 hPa | 0 mm | - | - | - |
* Rain latest hour (hover to see other rain measurements)
** Current wind speed in m/s (hover to see current wind gust speed)